Flag for Australia Weather past 2 weeks in Brisbane, Queensland, Australia

Now
70 °F

Sunny.


Feels Like: 70 °F
Forecast: 47 / 67 °F
Wind: 10 mph from North

Location: Brisbane Airport M. O

Current Time: Aug 3, 2015 at 10:31:13 AM

Latest Report: Aug 3, 2015 at 10:00 AM


Visibility: 10 mi

Pressure: 30.09 "Hg

Humidity: 64%

Dew point: 57 °F

Location of BrisbaneLocation

Historic Weather in Brisbane — Graph

°F

Brisbane temperature yesterday

Maximum temperature yesterday: 73 °F (at 12:30 PM)
Minimum temperature yesterday: 48 °F (at 6:30 AM)
Average temperature yesterday: 62 °F

Past Weeks' High & Low Weather Summary

 TemperatureHumidityPressure
High75 °F (Jul 25, 2:30 PM)100% (Jul 20, 6:00 AM)30.48 "Hg (Jul 20, 6:00 AM)
Low48 °F (Jul 29, 4:30 AM)27% (Jul 31, 12:30 PM)30.04 "Hg (Jul 24, 3:00 PM)
Average60 °F76%30.25 "Hg
* Reported Jul 19 9:00 AM — Aug 3 9:30 AM, Brisbane, Weather by CustomWeather, © 2015

Note: Actual official high and low records may vary slightly from our data, if they occured in-between our weather recording intervals... More about our weather records

Advertising

Brisbane weather history for previous 24 hours

 ConditionsComfort  
Time TempWeatherWind HumidityBarometerVisibility
9:30 AM
Mon, Aug 3
68 °FSunny.10 mph69%30.09 "Hg10 mi
9:00 AM64 °FSunny.10 mph78%30.09 "Hg10 mi
8:30 AM63 °FSunny.8 mph83%30.09 "Hg10 mi
8:00 AM61 °FSunny.5 mph88%30.09 "Hg10 mi
7:30 AM59 °FSunny.6 mph88%30.07 "Hg10 mi
6:30 AM52 °FFog.6 mph100%30.07 "HgN/A
6:00 AM54 °FFog.5 mph100%30.07 "HgN/A
5:30 AM54 °FFog.6 mph94%30.07 "HgN/A
5:00 AM54 °FFog.6 mph100%30.04 "HgN/A
4:30 AM55 °FClear.6 mph94%30.04 "Hg10 mi
4:00 AM55 °FClear.1 mph94%30.07 "Hg10 mi
3:30 AM57 °FClear.8 mph88%30.07 "Hg10 mi
3:00 AM57 °FClear.10 mph88%30.07 "Hg10 mi
2:30 AM57 °FClear.8 mph94%30.07 "Hg10 mi
2:00 AM57 °FClear.9 mph88%30.07 "Hg10 mi
1:30 AM57 °FClear.8 mph94%30.07 "Hg10 mi
1:00 AM57 °FClear.9 mph94%30.09 "Hg10 mi
12:30 AM59 °FClear.9 mph88%30.09 "Hg10 mi
12:00 AM59 °FClear.8 mph94%30.09 "Hg10 mi
11:30 PM
Sun, Aug 2
61 °FClear.9 mph88%30.09 "Hg10 mi
11:00 PM61 °FClear.8 mph88%30.09 "Hg10 mi
10:30 PM61 °FClear.9 mph88%30.09 "Hg10 mi
10:00 PM63 °FClear.10 mph88%30.09 "Hg10 mi
9:30 PM64 °FClear.8 mph83%30.12 "Hg10 mi
9:00 PM63 °FClear.10 mph88%30.09 "Hg10 mi
8:30 PM64 °FClear.12 mph83%30.09 "Hg10 mi
8:00 PM64 °FClear.10 mph88%30.09 "Hg10 mi
7:30 PM64 °FClear.10 mph88%30.09 "Hg10 mi
7:00 PM64 °FClear.10 mph88%30.09 "Hg10 mi
6:30 PM64 °FClear.13 mph88%30.09 "Hg10 mi
6:00 PM64 °FClear.15 mph88%30.09 "Hg10 mi
5:30 PM66 °FClear.15 mph78%30.07 "Hg10 mi
5:00 PM66 °FClear.16 mph78%30.07 "Hg10 mi
4:30 PM68 °FClear.17 mph73%30.07 "Hg10 mi
4:00 PM70 °FSunny.17 mph69%30.07 "Hg10 mi
3:30 PM70 °FSunny.18 mph69%30.07 "Hg10 mi
3:00 PM72 °FSunny.18 mph65%30.07 "Hg10 mi
2:30 PM72 °FSunny.17 mph65%30.09 "Hg10 mi
2:00 PM72 °FSunny.16 mph65%30.09 "Hg10 mi
1:30 PM72 °FSunny.13 mph61%30.09 "Hg10 mi
1:00 PM72 °FSunny.12 mph61%30.12 "Hg10 mi
12:30 PM73 °FSunny.10 mph53%30.12 "Hg10 mi
12:00 PM72 °FSunny.12 mph57%30.15 "Hg10 mi
11:30 AM72 °FPassing clouds.10 mph57%30.15 "HgN/A
11:00 AM70 °FPassing clouds.8 mph57%30.18 "HgN/A
10:30 AM70 °FPassing clouds.9 mph53%30.21 "HgN/A
10:00 AM66 °FSunny.8 mph60%30.21 "Hg10 mi
Weather by CustomWeather, © 2015

See weather overviewHow to use our weather pages